Weather History for Cumberland, WI

Change the Weather History Date:

Friday, March 7, 2014

  Actual Average (KRPD) Record (KRPD)
Temperature  
Mean Temperature 26 °F -  
Max Temperature 30 °F 28 °F 46 °F (2012)
Min Temperature 23 °F 12 °F -16 °F (2008)
Degree Days  
Heating Degree Days 38    
Moisture  
Dew Point 23 °F    
Average Humidity 86    
Maximum Humidity 93    
Minimum Humidity 74    
Precipitation  
Precipitation 0.00 in - - ()
Sea Level Pressure  
Sea Level Pressure 29.89 in    
Wind  
Wind Speed 9 mph (NW)    
Max Wind Speed 17 mph    
Max Gust Speed 22 mph    
Visibility 6 miles    
Events Snow    
Averages and records for this station are not official NWS values.
T = Trace of Precipitation, MM = Missing Value Source: NWS Daily Summary

Daily Weather History Graph

Daily Weather History Graph

Search for Another Location

Airport:

Trip Planner

Search our weather history database for the weather conditions in past years. The results will help you decide how hot, cold, wet, or windy it might be!

Date:

Astronomy

Mar. 07, 2014 Rise Set
Actual Time 6:35 AM CST 6:03 PM CST
Civil Twilight 6:05 AM CST 6:32 PM CST
Nautical Twilight 5:31 AM CST 7:07 PM CST
Astronomical Twilight 4:57 AM CST 7:41 PM CST
Moon 10:10 AM CST (3/7) 12:25 AM CST (3/7)
Length of Visible Light 12h 26m
Length of Day
11h 27m
Waxing Crescent, 42% of the Moon is Illuminated
Mar 7
Waxing Crescent
Mar 8
First Quarter
Mar 16
Full
Mar 23
Last Quarter
Mar 30
New

Hourly Weather History & Observations

Time (CST) Temp. Windchill Dew Point Humidity Pressure Visibility Wind Dir Wind Speed Gust Speed Precip Events Conditions
12:15 AM 23.0 °F 13.9 °F 17.6 °F 80% 29.82 in 10.0 mi South 8.1 mph - N/A   Overcast
12:35 AM 23.0 °F 13.1 °F 19.4 °F 86% 29.81 in 10.0 mi South 9.2 mph - N/A   Overcast
12:55 AM 23.0 °F 12.4 °F 19.4 °F 86% 29.81 in 10.0 mi South 10.4 mph - N/A   Overcast
1:15 AM 23.0 °F 11.1 °F 19.4 °F 86% 29.79 in 10.0 mi South 12.7 mph - N/A   Overcast
1:35 AM 24.8 °F 11.9 °F 19.4 °F 80% 29.78 in 10.0 mi South 16.1 mph - N/A   Overcast
1:55 AM 24.8 °F 14.6 °F 19.4 °F 80% 29.80 in 10.0 mi South 10.4 mph - N/A   Overcast
2:15 AM 24.8 °F 16.1 °F 19.4 °F 80% 29.81 in 7.0 mi SSW 8.1 mph - N/A   Overcast
2:35 AM 24.8 °F 16.9 °F 19.4 °F 80% 29.80 in 7.0 mi South 6.9 mph - N/A   Overcast
2:55 AM 24.8 °F 16.9 °F 19.4 °F 80% 29.79 in 7.0 mi South 6.9 mph - N/A   Overcast
3:15 AM 24.8 °F 17.9 °F 21.2 °F 86% 29.79 in 7.0 mi SSE 5.8 mph - N/A   Overcast
3:35 AM 24.8 °F 16.1 °F 21.2 °F 86% 29.79 in 7.0 mi SSE 8.1 mph - N/A   Overcast
3:55 AM 26.6 °F 18.2 °F 21.2 °F 80% 29.78 in 7.0 mi South 8.1 mph - N/A   Overcast
4:15 AM 26.6 °F 19.1 °F 21.2 °F 80% 29.78 in 7.0 mi SSE 6.9 mph - N/A   Overcast
4:35 AM 26.6 °F 21.2 °F 21.2 °F 80% 29.78 in 7.0 mi SSE 4.6 mph - N/A   Overcast
4:55 AM 24.8 °F 19.1 °F 21.2 °F 86% 29.78 in 7.0 mi SE 4.6 mph - N/A   Overcast
5:15 AM 24.8 °F 16.9 °F 21.2 °F 86% 29.78 in 7.0 mi SSE 6.9 mph - N/A   Overcast
5:35 AM 24.8 °F 16.1 °F 21.2 °F 86% 29.77 in 7.0 mi South 8.1 mph - N/A   Overcast
5:55 AM 26.6 °F 20.0 °F 21.2 °F 80% 29.77 in 7.0 mi South 5.8 mph - N/A   Overcast
6:15 AM 24.8 °F 19.1 °F 21.2 °F 86% 29.77 in 5.0 mi South 4.6 mph - N/A   Overcast
6:35 AM 26.6 °F - 21.2 °F 80% 29.77 in 5.0 mi Calm Calm - N/A   Overcast
6:55 AM 26.6 °F - 21.2 °F 80% 29.75 in 5.0 mi Calm Calm - N/A   Overcast
7:15 AM 26.6 °F 22.6 °F 23.0 °F 86% 29.77 in 4.0 mi South 3.5 mph - N/A   Overcast
7:35 AM 26.6 °F 21.2 °F 23.0 °F 86% 29.77 in 4.0 mi South 4.6 mph - N/A   Overcast
7:55 AM 26.6 °F 21.2 °F 23.0 °F 86% 29.78 in 4.0 mi SSW 4.6 mph - N/A   Overcast
8:15 AM 26.6 °F 21.2 °F 23.0 °F 86% 29.79 in 4.0 mi SW 4.6 mph - N/A   Overcast
8:35 AM 26.6 °F 22.6 °F 23.0 °F 86% 29.79 in 4.0 mi SW 3.5 mph - N/A   Overcast
8:55 AM 26.6 °F - 23.0 °F 86% 29.79 in 4.0 mi Calm Calm - N/A   Overcast
9:15 AM 28.4 °F - 23.0 °F 80% 29.78 in 4.0 mi Calm Calm - N/A   Overcast
9:35 AM 28.4 °F - 23.0 °F 80% 29.78 in 4.0 mi Calm Calm - N/A   Overcast
9:55 AM 28.4 °F - 23.0 °F 80% 29.79 in 4.0 mi Calm Calm - N/A   Overcast
10:15 AM 28.4 °F 23.3 °F 24.8 °F 86% 29.80 in 3.0 mi WNW 4.6 mph - N/A   Overcast
10:35 AM 28.4 °F 23.3 °F 26.6 °F 93% 29.80 in 2.5 mi NW 4.6 mph - N/A   Overcast
10:55 AM 30.2 °F 21.9 °F 28.4 °F 93% 29.81 in 1.8 mi NW 9.2 mph - N/A   Overcast
11:15 AM 30.2 °F 21.9 °F 28.4 °F 93% 29.81 in 1.8 mi NW 9.2 mph - N/A   Overcast
11:35 AM 30.2 °F 22.6 °F 28.4 °F 93% 29.82 in 1.5 mi NNW 8.1 mph - N/A   Overcast
11:55 AM 30.2 °F 20.2 °F 28.4 °F 93% 29.83 in 2.5 mi NW 12.7 mph - N/A   Overcast
12:15 PM 30.2 °F 21.3 °F 28.4 °F 93% 29.83 in 2.5 mi NNW 10.4 mph - N/A   Overcast
12:35 PM 30.2 °F 19.3 °F 28.4 °F 93% 29.84 in 2.5 mi NNW 15.0 mph - N/A   Overcast
12:55 PM 30.2 °F 18.9 °F 28.4 °F 93% 29.84 in 3.0 mi NNW 16.1 mph - N/A   Overcast
1:15 PM 30.2 °F 19.3 °F 28.4 °F 93% 29.84 in 3.0 mi NNW 15.0 mph - N/A   Overcast
1:30 PM 30.2 °F 18.5 °F 28.4 °F 93% 29.85 in 2.5 mi NNW 17.3 mph - N/A   Overcast
1:55 PM 30.2 °F 19.3 °F 28.4 °F 93% 29.85 in 2.0 mi NNW 15.0 mph - N/A   Overcast
2:15 PM 30.2 °F 19.3 °F 28.4 °F 93% 29.86 in 2.0 mi NW 15.0 mph 18.4 mph N/A   Overcast
2:35 PM 30.2 °F 19.8 °F 28.4 °F 93% 29.87 in 2.5 mi NNW 13.8 mph - N/A   Overcast
2:55 PM 30.2 °F 20.2 °F 28.4 °F 93% 29.88 in 1.8 mi NNW 12.7 mph - N/A   Overcast
3:15 PM 30.2 °F 18.5 °F 28.4 °F 93% 29.89 in 2.0 mi NW 17.3 mph - N/A   Overcast
3:35 PM 30.2 °F 19.8 °F 26.6 °F 86% 29.91 in 3.0 mi NNW 13.8 mph 17.3 mph N/A   Overcast
3:55 PM 30.2 °F 20.8 °F 26.6 °F 86% 29.92 in 5.0 mi NNW 11.5 mph - N/A   Overcast
4:15 PM 30.2 °F 19.3 °F 26.6 °F 86% 29.93 in 5.0 mi NNW 15.0 mph - N/A   Overcast
4:35 PM 28.4 °F 17.0 °F 26.6 °F 93% 29.93 in 5.0 mi North 15.0 mph 21.9 mph N/A   Overcast
4:55 PM 28.4 °F 17.0 °F 26.6 °F 93% 29.95 in 5.0 mi NNW 15.0 mph - N/A   Overcast
5:15 PM 28.4 °F 18.5 °F 26.6 °F 93% 29.96 in 5.0 mi NNW 11.5 mph - N/A   Overcast
5:35 PM 28.4 °F 18.5 °F 26.6 °F 93% 29.98 in 5.0 mi NNW 11.5 mph - N/A   Overcast
5:55 PM 28.4 °F 18.0 °F 26.6 °F 93% 29.99 in 5.0 mi NNW 12.7 mph - N/A   Overcast
6:10 PM 28.4 °F 17.5 °F 26.6 °F 93% 30.00 in 5.0 mi NNW 13.8 mph - N/A   Overcast
6:35 PM 28.4 °F 17.5 °F 26.6 °F 93% 30.01 in 10.0 mi NNW 13.8 mph - N/A   Overcast
6:55 PM 28.4 °F 17.5 °F 26.6 °F 93% 30.02 in 7.0 mi NNW 13.8 mph 19.6 mph N/A   Overcast
7:15 PM 28.4 °F 17.5 °F 23.0 °F 80% 30.03 in 10.0 mi NNW 13.8 mph 20.7 mph N/A   Overcast
7:35 PM 26.6 °F 17.5 °F 23.0 °F 86% 30.05 in 10.0 mi North 9.2 mph - N/A   Overcast
7:55 PM 26.6 °F 15.2 °F 23.0 °F 86% 30.05 in 10.0 mi North 13.8 mph 18.4 mph N/A   Overcast
8:15 PM 26.6 °F 15.2 °F 21.2 °F 80% 30.06 in 10.0 mi North 13.8 mph - N/A   Overcast
8:35 PM 26.6 °F 15.2 °F 21.2 °F 80% 30.07 in 10.0 mi North 13.8 mph - N/A   Overcast
8:55 PM 26.6 °F 14.7 °F 19.4 °F 74% 30.08 in 10.0 mi North 15.0 mph - N/A   Overcast
9:15 PM 26.6 °F 16.2 °F 19.4 °F 74% 30.09 in 10.0 mi North 11.5 mph - N/A   Overcast
9:35 PM 26.6 °F 16.2 °F 19.4 °F 74% 30.10 in 10.0 mi North 11.5 mph 17.3 mph N/A   Overcast
9:55 PM 24.8 °F 14.0 °F 19.4 °F 80% 30.10 in 10.0 mi North 11.5 mph - N/A   Overcast
10:15 PM 24.8 °F 14.6 °F 19.4 °F 80% 30.11 in 10.0 mi North 10.4 mph 18.4 mph N/A   Overcast
10:35 PM 24.8 °F 14.0 °F 19.4 °F 80% 30.11 in 10.0 mi North 11.5 mph - N/A   Overcast
10:50 PM 24.8 °F 13.4 °F 19.4 °F 80% 30.12 in 10.0 mi North 12.7 mph 17.3 mph N/A Snow Light Snow
11:15 PM 23.0 °F 12.4 °F 19.4 °F 86% 30.13 in 10.0 mi North 10.4 mph 18.4 mph N/A Snow Light Snow
11:35 PM 23.0 °F 12.4 °F 17.6 °F 80% 30.13 in 10.0 mi North 10.4 mph - N/A Snow Light Snow
11:55 PM 23.0 °F 11.7 °F 17.6 °F 80% 30.14 in 10.0 mi NNE 11.5 mph - N/A Snow Light Snow